EW4907 Weather Reports


Display with metric or nautical units.
time (UTC)temp
F
wind
direction
speed
MPH
gust
MPH
rain 1hr
in
rain 24hr
in
rain mn
in
humidity
%
barometer
mb
20260504081530 60 193 4.0 9.0 0.00 0.00 0.00 79 1015.7
20260504050106 62 198 4.0 11.0 0.00 0.00 0.00 67 1018.1
20260504044601 63 166 3.0 9.0 0.00 0.00 0.00 66 1017.9
20260504043057 63 160 3.0 9.0 0.00 0.00 0.00 64 1018.1
20260504041600 64 162 5.0 10.0 0.00 0.00 0.00 62 1018.2
20260504040055 64 177 4.0 8.0 0.00 0.00 0.00 60 1018.2
20260504034554 64 190 4.0 8.0 0.00 0.00 0.00 58 1018.2
20260504033054 65 124 4.0 10.0 0.00 0.00 0.00 55 1018.2
20260504031554 65 178 2.0 5.0 0.00 0.00 0.00 54 1018.1
20260504030054 66 176 2.0 4.0 0.00 0.00 0.00 52 1018.0
20260504024608 66 165 2.0 4.0 0.00 0.00 0.00 51 1018.0
20260504023053 67 161 2.0 5.0 0.00 0.00 0.00 51 1017.9
20260504021552 67 174 2.0 4.0 0.00 0.00 0.00 50 1017.9
20260504020051 68 217 2.0 4.0 0.00 0.00 0.00 49 1017.9
20260504014556 68 167 2.0 4.0 0.00 0.00 0.00 48 1017.7
20260504013054 69 142 3.0 5.0 0.00 0.00 0.00 47 1017.4
20260504011550 70 160 3.0 6.0 0.00 0.00 0.00 45 1017.4
20260504010049 71 162 3.0 6.0 0.00 0.00 0.00 43 1017.5
20260504004548 72 162 4.0 10.0 0.00 0.00 0.00 41 1017.4
20260504003051 73 172 5.0 11.0 0.00 0.00 0.00 39 1017.5
20260504001546 74 157 5.0 10.0 0.00 0.00 0.00 37 1017.7
20260504000111 74 176 4.0 10.0 0.00 0.00 0.00 38 1017.9
20260503234551 75 191 3.0 10.0 0.00 0.00 0.00 37 1018.1
20260503233041 76 198 5.0 12.0 0.00 0.00 0.00 35 1017.9
20260503231540 76 136 6.0 16.0 0.00 0.00 0.00 37 1018.1
20260503230040 76 111 5.0 10.0 0.00 0.00 0.00 35 1018.0
20260503224539 75 149 4.0 13.0 0.00 0.00 0.00 35 1018.0
20260503223040 75 111 5.0 17.0 0.00 0.00 0.00 36 1018.3
20260503221546 76 150 8.0 15.0 0.00 0.00 0.00 35 1018.6
20260503220034 77 140 4.0 14.0 0.00 0.00 0.00 34 1018.7
20260503214531 77 168 4.0 15.0 0.00 0.00 0.00 35 1019.0
20260503213031 76 112 6.0 16.0 0.00 0.00 0.00 33 1019.1
20260503211527 78 152 9.0 14.0 0.00 0.00 0.00 33 1019.4
20260503210025 77 213 7.0 14.0 0.00 0.00 0.00 31 1019.9
20260503204522 77 134 4.0 15.0 0.00 0.00 0.00 33 1020.1
20260503203028 76 135 7.0 15.0 0.00 0.00 0.00 32 1020.5
20260503201518 77 84 6.0 14.0 0.00 0.00 0.00 32 1020.7
20260503200015 76 214 7.0 12.0 0.00 0.00 0.00 34 1020.8
20260503194515 76 160 4.0 15.0 0.00 0.00 0.00 33 1021.1
20260503193012 76 156 6.0 15.0 0.00 0.00 0.00 28 1021.3
20260503191509 76 115 6.0 14.0 0.00 0.00 0.00 33 1021.5
20260503190010 75 209 5.0 14.0 0.00 0.00 0.00 32 1021.7
20260503184507 76 83 6.0 13.0 0.00 0.00 0.00 34 1022.0
20260503183002 76 205 5.0 14.0 0.00 0.00 0.00 32 1022.2
20260503181503 76 198 7.0 16.0 0.00 0.00 0.00 35 1022.5
20260503180000 75 158 6.0 15.0 0.00 0.00 0.00 30 1022.8
20260503174601 75 158 5.0 11.0 0.00 0.00 0.00 36 1023.0
20260503173102 75 199 4.0 11.0 0.00 0.00 0.00 37 1023.2
20260503171600 75 152 6.0 11.0 0.00 0.00 0.00 35 1023.5